TimeCDT,TemperatureF,Dew PointF,Humidity,Sea Level PressureIn,VisibilityMPH,Wind Direction,Wind SpeedMPH,Gust SpeedMPH,PrecipitationIn,Events,Conditions,WindDirDegrees,DateUTC
2:53 AM,64.9,55.9,73,29.88,10.0,Calm,Calm,-,N/A,,Clear,0,2013-05-01 07:53:00
3:53 AM,64.0,57.0,78,29.88,10.0,ESE,3.5,-,N/A,,Clear,110,2013-05-01 08:53:00
4:53 AM,63.0,57.0,81,29.89,10.0,Calm,Calm,-,N/A,,Clear,0,2013-05-01 09:53:00
5:53 AM,64.0,57.9,80,29.90,10.0,Calm,Calm,-,N/A,,Clear,0,2013-05-01 10:53:00
6:53 AM,64.9,57.9,78,29.92,10.0,Variable,3.5,-,N/A,,Clear,0,2013-05-01 11:53:00
8:53 AM,66.9,60.1,79,29.94,10.0,Calm,Calm,-,N/A,,Clear,0,2013-05-01 13:53:00
9:53 AM,72.0,62.1,71,29.96,10.0,Variable,5.8,-,N/A,,Clear,0,2013-05-01 14:53:00
10:53 AM,73.9,62.1,66,29.97,10.0,Variable,5.8,-,N/A,,Partly Cloudy,0,2013-05-01 15:53:00
11:53 AM,73.9,62.1,66,29.98,10.0,Variable,4.6,-,N/A,,Clear,0,2013-05-01 16:53:00
12:53 PM,77.0,62.1,60,29.99,10.0,ESE,8.1,-,N/A,,Partly Cloudy,110,2013-05-01 17:53:00
1:53 PM,73.0,62.1,68,30.00,10.0,Calm,Calm,-,0.00,Rain,Light Rain,0,2013-05-01 18:53:00
3:53 PM,75.0,62.1,64,30.00,10.0,East,6.9,16.1,N/A,,Partly Cloudy,90,2013-05-01 20:53:00
4:53 PM,73.0,63.0,71,29.99,10.0,East,5.8,-,N/A,,Partly Cloudy,90,2013-05-01 21:53:00
5:53 PM,73.9,62.1,66,29.99,10.0,Variable,4.6,-,N/A,,Mostly Cloudy,0,2013-05-01 22:53:00
6:53 PM,73.0,62.1,68,29.99,10.0,East,4.6,-,N/A,,Partly Cloudy,80,2013-05-01 23:53:00
7:53 PM,72.0,60.1,66,30.00,10.0,Variable,6.9,-,N/A,,Clear,0,2013-05-02 00:53:00
8:53 PM,69.1,60.1,73,30.00,10.0,Variable,4.6,-,N/A,,Clear,0,2013-05-02 01:53:00
9:53 PM,68.0,60.1,76,30.02,10.0,East,3.5,-,N/A,,Clear,100,2013-05-02 02:53:00
10:53 PM,64.0,60.1,87,30.04,10.0,Calm,Calm,-,N/A,,Clear,0,2013-05-02 03:53:00
11:53 PM,62.1,59.0,90,30.04,10.0,Calm,Calm,-,N/A,,Clear,0,2013-05-02 04:53:00